CW5234 Weather Reports


time (UTC)temp
C
wind
direction
speed
KPH
gust
KPH
rain 1hr
cm
rain 24hr
cm
rain mn
cm
humidity
%
barometer
mb
20260504194627 23 169 3.2 6.4 0.00 0.00 0.00 30 1011.1
20260504193627 23 127 4.8 8.0 0.00 0.00 0.00 30 1011.0
20260504192629 23 283 0.0 4.8 0.00 0.00 0.00 31 1011.3
20260504191627 22 180 4.8 9.7 0.00 0.00 0.00 31 1011.4
20260504190628 23 257 1.6 9.7 0.00 0.00 0.00 31 1011.5
20260504185628 23 147 6.4 11.3 0.00 0.00 0.00 30 1011.8
20260504184627 22 177 4.8 9.7 0.00 0.00 0.00 31 1012.0
20260504183627 22 294 3.2 6.4 0.00 0.00 0.00 31 1012.0
20260504180727 22 185 1.6 6.4 0.00 0.00 0.00 32 1012.5
20260504175728 22 186 4.8 9.7 0.00 0.00 0.00 32 1012.8
20260504174729 21 155 3.2 11.3 0.00 0.00 0.00 33 1012.7
20260504173728 21 180 1.6 3.2 0.00 0.00 0.00 33 1012.9
20260504172728 21 134 4.8 6.4 0.00 0.00 0.00 33 1013.0
20260504171728 21 261 3.2 11.3 0.00 0.00 0.00 32 1013.0
20260504150827 17 127 3.2 6.4 0.00 0.00 0.00 43 1014.7
20260504140928 15 255 0.0 4.8 0.00 0.00 0.00 54 1015.0
20260504100130 7 180 1.6 3.2 0.00 0.00 0.00 64 1015.4
20260504081426 7 202 0.0 0.0 0.00 0.00 0.00 59 1015.3
20260504080428 7 180 0.0 0.0 0.00 0.00 0.00 60 1015.3
20260504045829 7 180 0.0 0.0 0.00 0.00 0.00 61 1015.1
20260504044927 7 173 3.2 4.8 0.00 0.00 0.00 62 1015.2
20260504042928 7 225 0.0 1.6 0.00 0.00 0.00 60 1015.0
20260504041926 7 149 0.0 1.6 0.00 0.00 0.00 61 1014.9
20260504035935 8 180 0.0 1.6 0.00 0.00 0.00 57 1014.8
20260504034935 8 180 0.0 1.6 0.00 0.00 0.00 55 1014.7
20260504033936 8 157 0.0 0.0 0.00 0.00 0.00 55 1014.7
20260504032936 8 197 3.2 6.4 0.00 0.00 0.00 56 1014.6
20260504031036 10 127 0.0 1.6 0.00 0.00 0.00 51 1014.6
20260504030036 10 225 0.0 0.0 0.00 0.00 0.00 49 1014.5
20260504024035 10 277 0.0 3.2 0.00 0.00 0.00 50 1014.6
20260504023037 10 180 0.0 0.0 0.00 0.00 0.00 49 1014.6
20260504022036 10 225 0.0 0.0 0.00 0.00 0.00 49 1014.7
20260504021033 10 165 0.0 3.2 0.00 0.00 0.00 47 1014.6
20260504020037 10 157 0.0 0.0 0.00 0.00 0.00 44 1014.6
20260504015034 10 157 0.0 1.6 0.00 0.00 0.00 44 1014.5
20260504014035 10 180 0.0 1.6 0.00 0.00 0.00 45 1014.5
20260504012034 11 226 0.0 0.0 0.00 0.00 0.00 43 1014.3
20260504011035 11 157 0.0 0.0 0.00 0.00 0.00 42 1014.2
20260504005037 11 135 0.0 1.6 0.00 0.00 0.00 42 1013.9
20260504004135 11 135 0.0 0.0 0.00 0.00 0.00 41 1013.9
20260504003136 11 180 0.0 0.0 0.00 0.00 0.00 41 1013.9
20260504001234 12 180 0.0 0.0 0.00 0.00 0.00 38 1013.6
20260504000235 13 225 0.0 0.0 0.00 0.00 0.00 37 1013.5
20260503235334 13 151 0.0 4.8 0.00 0.00 0.00 36 1013.4
20260503234337 13 127 1.6 4.8 0.00 0.00 0.00 34 1013.4
20260503233336 13 315 0.0 3.2 0.00 0.00 0.00 35 1013.2
20260503232433 14 308 0.0 1.6 0.00 0.00 0.00 34 1013.3
20260503231436 14 259 0.0 1.6 0.00 0.00 0.00 32 1013.3
20260503230436 15 330 3.2 6.4 0.00 0.00 0.00 33 1013.1
20260503225435 15 315 3.2 4.8 0.00 0.00 0.00 31 1013.1
20260503224437 15 300 1.6 3.2 0.00 0.00 0.00 31 1013.0
20260503222533 15 292 0.0 3.2 0.00 0.00 0.00 30 1013.0
20260503221538 15 301 3.2 4.8 0.00 0.00 0.00 30 1013.0
20260503220634 16 314 4.8 6.4 0.00 0.00 0.00 28 1013.0
20260503214634 16 319 6.4 9.7 0.00 0.00 0.00 27 1013.0
20260503213637 16 257 0.0 1.6 0.00 0.00 0.00 28 1012.9
20260503212634 16 287 1.6 4.8 0.00 0.00 0.00 29 1013.0
20260503211635 16 277 3.2 11.3 0.00 0.00 0.00 29 1012.9
20260503210636 16 303 3.2 6.4 0.00 0.00 0.00 30 1013.0
20260503205634 15 271 4.8 9.7 0.00 0.00 0.00 30 1013.1
20260503204634 15 305 4.8 8.0 0.00 0.00 0.00 30 1013.1
20260503203636 15 300 4.8 9.7 0.00 0.00 0.00 29 1013.2
20260503202634 15 314 6.4 8.0 0.00 0.00 0.00 29 1013.2
20260503201634 15 274 3.2 4.8 0.00 0.00 0.00 30 1013.1
20260503200635 15 276 4.8 14.5 0.00 0.00 0.00 30 1013.2